Lamar, CO

6:45 AM MST on December 09, 2019 (GMT -0700)
Lamar Municipal

Weather History for KLAA - October, 2019

Change the Weather History Date:

Monday, October 21, 2019

  Actual Average Record
Temperature  
Mean Temperature 43 °F 51 °F  
Max Temperature 61 °F 68 °F 95 °F (1921)
Min Temperature 25 °F 33 °F 24 °F (1996)
Degree Days  
Heating Degree Days 22 14  
Month to date heating degree days 253 218  
Since 1 July heating degree days 259 301  
Cooling Degree Days 0 0  
Month to date cooling degree days 1 8  
Year to date cooling degree days 1406 1120  
Moisture  
Dew Point 14 °F    
Average Humidity 36    
Maximum Humidity 57    
Minimum Humidity 14    
Precipitation  
Precipitation 0.00 in 0.03 in 0.49 in (1979)
Month to date precipitation 0.01 0.57  
Year to date precipitation 7.76 14.19  
Sea Level Pressure  
Sea Level Pressure 29.95 in    
Wind  
Wind Speed 11 mph (WNW)    
Max Wind Speed 26 mph    
Max Gust Speed 35 mph    
Visibility 10 miles    
Events      
T = Trace of Precipitation, MM = Missing Value Source: NWS Daily Summary

Daily Weather History Graph

Daily Weather History Graph

Search for Another Location

Airport or City:

Astronomy

Oct. 21, 2019 Rise Set
Actual Time 7:05 AM MDT 6:05 PM MDT
Civil Twilight 6:38 AM MDT 6:31 PM MDT
Nautical Twilight 6:07 AM MDT 7:02 PM MDT
Astronomical Twilight 5:37 AM MDT 7:32 PM MDT
Moon No Moon Rise 2:21 PM MDT (10/21)
Length of Visible Light 11h 53m
Length of Day
10h 59m
Waning Gibbous, 47% of the Moon is Illuminated
Oct 21
Waning Gibbous
Oct 27
New
Nov 4
First Quarter
Nov 12
Full
Nov 19
Last Quarter

Hourly Weather History & Observations

Time (MDT) Temp. Windchill Dew Point Humidity Pressure Visibility Wind Dir Wind Speed Gust Speed Precip Events Conditions
12:53 AM 33.1 °F 26.1 °F 16.0 °F 50% 29.82 in 10.0 mi WSW 8.1 mph - N/A   Clear
1:53 AM 30.0 °F 23.2 °F 16.0 °F 56% 29.82 in 10.0 mi WNW 6.9 mph - N/A   Clear
2:53 AM 32.0 °F 24.8 °F 14.0 °F 48% 29.83 in 10.0 mi WSW 8.1 mph - N/A   Clear
3:53 AM 32.0 °F 23.6 °F 10.0 °F 40% 29.85 in 10.0 mi SW 10.4 mph - N/A   Clear
4:53 AM 34.0 °F 26.0 °F 15.1 °F 46% 29.86 in 10.0 mi WNW 10.4 mph - N/A   Clear
5:53 AM 32.0 °F 22.5 °F 15.1 °F 50% 29.88 in 10.0 mi West 12.7 mph - N/A   Clear
6:53 AM 26.1 °F 18.4 °F 12.9 °F 58% 29.91 in 10.0 mi West 6.9 mph - N/A   Clear
7:53 AM 35.1 °F 27.9 °F 18.0 °F 50% 29.91 in 10.0 mi West 9.2 mph - N/A   Clear
8:53 AM 44.1 °F 37.7 °F 18.0 °F 35% 29.93 in 10.0 mi WNW 12.7 mph - N/A   Clear
9:53 AM 48.9 °F - 17.1 °F 28% 29.93 in 10.0 mi West 8.1 mph - N/A   Clear
10:15 AM 53.1 °F - 15.1 °F 22% 29.95 in 10.0 mi NNW 17.3 mph 27.6 mph N/A   Clear
10:53 AM 54.0 °F - 15.1 °F 22% 29.93 in 10.0 mi NNW 17.3 mph 25.3 mph N/A   Clear
11:53 AM 57.0 °F - 15.1 °F 19% 29.92 in 10.0 mi NNW 18.4 mph 24.2 mph N/A   Clear
12:53 PM 59.0 °F - 12.9 °F 16% 29.92 in 10.0 mi NW 12.7 mph 31.1 mph N/A   Scattered Clouds
1:53 PM 57.9 °F - 12.0 °F 16% 29.92 in 10.0 mi North 18.4 mph 28.8 mph N/A   Mostly Cloudy
2:53 PM 60.1 °F - 10.0 °F 14% 29.91 in 10.0 mi NNW 23.0 mph 29.9 mph N/A   Clear
3:53 PM 60.1 °F - 10.9 °F 14% 29.93 in 10.0 mi North 20.7 mph 28.8 mph N/A   Partly Cloudy
4:53 PM 57.9 °F - 12.0 °F 16% 29.95 in 10.0 mi North 15.0 mph 23.0 mph N/A   Clear
5:53 PM 52.0 °F - 15.1 °F 23% 30.01 in 10.0 mi North 10.4 mph - N/A   Partly Cloudy
6:53 PM 44.1 °F 40.1 °F 15.1 °F 31% 30.06 in 10.0 mi North 6.9 mph - N/A   Clear
7:53 PM 44.1 °F 39.0 °F 16.0 °F 32% 30.09 in 10.0 mi NNW 9.2 mph - N/A   Partly Cloudy
8:53 PM 42.1 °F - 16.0 °F 35% 30.10 in 10.0 mi Calm Calm - N/A   Partly Cloudy
9:53 PM 36.0 °F 32.1 °F 14.0 °F 41% 30.12 in 10.0 mi SW 4.6 mph - N/A   Clear
10:53 PM 35.1 °F 27.9 °F 12.9 °F 40% 30.13 in 10.0 mi SSW 9.2 mph - N/A   Scattered Clouds
11:53 PM 37.0 °F 31.0 °F 14.0 °F 39% 30.13 in 10.0 mi SSW 8.1 mph - N/A   Mostly Cloudy